Location: Campillo
(40.8621°N, 4.2488°W)
Time: 18:54:04
(UTC+00:00)

USA 245 - Pass Details

Date: 02 October 2021
Orbit: 268 x 1011 km, 97.9° (Epoch: 25 October)

Event Time Altitude Azimuth Distance (km) Brightness Sun altitude
Exits shadow 22:16:17 11° 331° (NNW) 2,348 7.0 -45.6°
Drops below altitude 10° 22:16:24 10° 331° (NNW) 2,393 7.1 -45.6°
Sets 22:19:13 0° 340° (NNW) 3,452 8.0 -46.0°
